Weather in Jicin

Czech Republic     50°26′17″N   15°21′22″E
temp.,
°C
wind,
m/s
gust,
m/s
humid.,
%
clouds,
%
prec.,
mm/h
press.,
hPa
HPBL,
m
4 march, thu
thu401:00+3nne008576 0.0 102322
04:00+2w118728 0.0 102022
07:00+2nw118729 0.0 102022
10:00+7sw127481 0.0 1019254
13:00+11w366872 0.0 1016862
16:00+10wnw477688 0.9 1014768
19:00+7nnw399194 2.8 1014578
22:00+4nnw4885100 2.1 1015658
5 march, fri
fri501:00+3nnw4881100 2.6 1016829
04:00+1nw3795100 0.0 1018408
07:000n4980100 0.1 1021560
10:00+2n566222 0.0 10231093
13:00+3nne454945 0.0 10251408
16:00+2n46501 0.0 10251644
19:00−1nnw24717 0.0 102890
22:00−1nnw12680 0.0 103140
6 march, sat
sat601:00−2nw12720 0.0 103236
04:00−2nnw24750 0.0 1033115
07:00−3nnw23730 0.0 1034121
10:00+2nne11420 0.0 1034812
13:00+3w11350 0.0 10341233
16:00+3wsw22370 0.0 10321115
19:00−1wsw125915 0.0 103121
22:00−2n116133 0.0 103121
7 march, sun
sun701:00−2wnw006017 0.0 103021
04:00−2nne00590 0.0 102821
07:00−2sse01580 0.0 102721
10:00+2wsw23420 0.0 1026560
13:00+5w34360 0.0 10231063
16:00+5w34420 0.0 10211149
19:00−1nnw23660 0.0 102122
22:00−2nnw227711 0.0 102235
8 march, mon
mon801:00−2wnw228814 0.0 102268
04:00−3wnw259092 0.0 1021168
07:00−2wnw269070 0.0 1022366
10:00+2nw357186 0.0 1023722
13:00+4nw356588 0.1 10241019
16:00+3nnw455950 0.1 1023998
19:00−2e128626 0.1 102525
22:00−2nne118371 0.0 102724